sat.trackr.live / text

‹ back to catalog

STARLINK-5752

NORAD 55577 · 2023-020J

PAYLOAD ACTIVE UNKNOWN

§ Identity

Operator
Country
US
Launch date
2023-02-12
Launch site
AFETR
Launch vehicle
Mass (kg)
RCS (m²)

Purposes: comms

External: N2YO · Heavens-Above · Gunter

§ Orbital elements

Epoch: 2026-05-24T19:44:33.603360Z

Period
94.27 min
Inclination
43.0031°
Eccentricity
0.0003269
Mean motion
15.27603175 rev/d
Perigee alt
480.7 km
Apogee alt
485.2 km
Semi-major
6,861.1 km
B*
-9.4594e-5
RAAN
295.4010°
Arg perigee
290.0998°
Mean anomaly
69.9502°
Rev number
18,055

§ Raw data

STARLINK-57521 55577U 23020J   26144.82261115 -.00002867  00000+0 -94594-4 0  99982 55577  43.0031 295.4010 0003269 290.0998  69.9502 15.27603175180557

JSON: /api/v1/satellites/55577 · /tle

For live sub-satellite position, see the globe view (requires WebGL).

§ Visibility from observer

Set your observer location to see the next 7 days of passes ≥ 10°. The values pass through the URL so the page stays shareable.

No JS? Fill the form by hand. The geolocation button needs JavaScript.